Location: Doschendorf
(50.0069°N, 11.0602°E)
Time: 15:57:59
(UTC+00:00)

Cosmos 2227 - Pass Details

Date: 17 November 2019
Orbit: 832 x 863 km, 71.0° (Epoch: 11 December)

Event Time Altitude Azimuth Distance (km) Brightness Sun altitude
Rises 17:22:23 0° 332° (NNW) 3,456 7.6 -17.9°
Reaches altitude 10° 17:24:56 10° 337° (NNW) 2,515 6.8 -18.3°
Maximum altitude 17:30:37 55° 55° (NE) 1,038 4.3 -19.2°
Enters shadow 17:33:24 29° 119° (ESE) 1,535 5.1 -19.6°
